FW9580 Weather Reports


time (UTC)temp
C
wind
direction
speed
KPH
gust
KPH
rain 1hr
cm
rain 24hr
cm
rain mn
cm
humidity
%
barometer
mb
20260504231505 10 120 8.0 12.9 0.00 0.10 0.10 74 1005.8
20260504230005 10 128 8.0 14.5 0.00 0.10 0.10 74 1005.7
20260504224503 11 122 4.8 11.3 0.00 0.10 0.10 73 1005.4
20260504223004 12 129 8.0 11.3 0.00 0.10 0.10 70 1005.3
20260504221502 12 120 1.6 11.3 0.00 0.10 0.10 68 1005.4
20260504220004 12 134 4.8 11.3 0.00 0.10 0.10 66 1005.5
20260504214501 13 135 6.4 12.9 0.00 0.10 0.10 63 1005.2
20260504213002 13 144 9.7 16.1 0.00 0.10 0.10 64 1005.2
20260504211501 13 140 8.0 14.5 0.00 0.10 0.10 62 1005.2
20260504210106 13 131 11.3 19.3 0.00 0.10 0.10 61 1005.1
20260504204605 14 171 9.7 20.9 0.00 0.10 0.10 62 1005.0
20260504203101 14 113 9.7 20.9 0.00 0.10 0.10 66 1005.0
20260504201559 14 130 11.3 20.9 0.00 0.10 0.10 68 1004.8
20260504200058 13 120 12.9 20.9 0.00 0.13 0.10 70 1004.8
20260504194600 14 170 6.4 12.9 0.00 0.13 0.10 72 1004.9
20260504193109 13 167 8.0 12.9 0.00 0.13 0.10 79 1004.9
20260504191554 12 178 4.8 12.9 0.03 0.13 0.10 79 1005.1
20260504184551 10 182 4.8 8.0 0.10 0.20 0.10 88 1005.6
20260504183058 8 188 4.8 11.3 0.10 0.20 0.10 88 1006.0
20260504181548 8 193 8.0 20.9 0.08 0.18 0.08 86 1006.1
20260504180122 8 165 8.0 20.9 0.03 0.25 0.03 80 1005.8
20260504174546 10 182 11.3 19.3 0.00 0.23 0.00 69 1005.5
20260504173046 10 157 14.5 22.5 0.00 0.23 0.00 68 1005.3
20260504171548 10 140 17.7 30.6 0.00 0.23 0.00 69 1005.3
20260504100116 4 188 9.7 17.7 0.00 1.73 0.00 71 1007.0
20260504081548 2 193 4.8 11.3 0.00 1.80 0.00 76 1006.6
20260504050021 4 267 8.0 25.7 0.00 2.01 2.01 70 1005.4
20260504044532 4 242 11.3 25.7 0.00 2.01 2.01 71 1005.4
20260504043028 4 246 9.7 19.3 0.00 2.01 2.01 73 1005.4
20260504041519 4 213 8.0 20.9 0.00 2.01 2.01 71 1005.3
20260504040021 4 236 11.3 22.5 0.00 2.01 2.01 70 1005.1
20260504034519 4 249 11.3 19.3 0.00 2.01 2.01 71 1004.9
20260504033017 5 240 11.3 19.3 0.00 2.01 2.01 70 1004.8
20260504031519 5 229 11.3 20.9 0.00 2.01 2.01 69 1004.7
20260504030017 5 256 8.0 27.4 0.00 2.01 2.01 69 1004.6
20260504024517 5 242 9.7 22.5 0.00 2.01 2.01 68 1004.5
20260504023016 5 276 9.7 24.1 0.00 2.01 2.01 68 1004.3
20260504021515 5 287 8.0 20.9 0.00 2.01 2.01 67 1004.2
20260504020014 5 252 16.1 29.0 0.00 2.01 2.01 66 1004.1
20260504014514 5 238 14.5 33.8 0.00 2.01 2.01 66 1004.1
20260504013018 6 261 14.5 32.2 0.00 2.01 2.01 66 1003.9
20260504011511 6 262 14.5 33.8 0.00 2.01 2.01 67 1003.6
20260504010010 6 250 12.9 25.7 0.00 2.01 2.01 70 1003.3
20260504004516 6 250 14.5 29.0 0.00 2.01 2.01 72 1003.0
20260504003005 6 271 14.5 27.4 0.00 2.01 2.01 79 1002.7
20260504001505 5 252 6.4 12.9 0.00 2.01 2.01 91 1002.5
20260504000004 5 257 3.2 9.7 0.00 2.01 2.01 89 1002.3
20260503234503 6 271 6.4 11.3 0.00 2.01 2.01 88 1002.1
20260503233002 6 277 4.8 11.3 0.00 2.01 2.01 87 1001.9